[[[{"header":{"parameterUnit":"kt","parameterCategory":2,"dx":1,"dy":1,"la1":30.253999710083008,"la2":30.299108505249023,"lo1":-89.0895004272461,"lo2":-89.04439544677734,"nx":28,"ny":28,"refTime":"2022-10-23T21:00:00:Z","depth":"0","parameterNumber":2,"parameterNumberName":"U-component_of_CURRENTS"},"data":[0.4073,0.401,0.3987,0.3855,0.3821,0.3675,0.3623,0.3532,0.3531,0.3417,0.3381,0.3453,0.3597,0.355,0.337,0.3284,0.305,0.2823,0.2896,0.338,0.3427,0.3471,0.3364,0.3028,0.3028,0.2109,0.2103,0.2098,0.411,0.4089,0.4097,0.4036,0.3996,0.4044,0.4059,0.3977,0.3918,0.4016,0.4032,0.4033,0.3932,0.3957,0.3858,0.3698,0.3489,0.3596,0.3256,0.3221,0.382,0.3715,0.3448,0.3448,0.3449,0.3449,0.3449,0.3449,0.4158,0.4161,0.4113,0.4116,0.4141,0.4136,0.4117,0.4182,0.425,0.428,0.4484,0.4448,0.451,0.4487,0.4435,0.4249,0.4229,0.4099,0.4091,0.3886,0.369,0.4257,0.4207,0.4209,0.4212,0.4214,0.4216,0,0.414,0.4128,0.4122,0.4126,0.4148,0.4202,0.427,0.4342,0.4468,0.4575,0.4674,0.4723,0.4845,0.4745,0.4765,0.4722,0.4516,0.4686,0.4636,0.4169,0.383,0.3726,0.4407,0.441,0.4414,0.4417,0.4419,0.4421,0.4104,0.4095,0.4098,0.4103,0.4112,0.4179,0.423,0.4348,0.4429,0.4645,0.4705,0.4868,0.4921,0.5038,0.5004,0.4992,0.4865,0.4784,0.4673,0.4539,0.4504,0.4272,0.4181,0.4465,0.4459,0.4454,0.4451,0,0.4096,0.4062,0.4072,0.408,0.4095,0.4136,0.4261,0.4328,0.4453,0.4604,0.4648,0.4819,0.492,0.4997,0.5095,0.5057,0.4926,0.5068,0.4807,0.4773,0.4566,0.4531,0.4282,0.417,0.4984,0.4982,0.498,0,0.4076,0.408,0.4055,0.4055,0.4099,0.4125,0.4219,0.4282,0.4418,0.4529,0.4618,0.4726,0.4828,0.4931,0.4932,0.4976,0.5068,0.4928,0.4928,0.4734,0.4705,0.4636,0.4593,0.5073,0.5072,0.5072,0.5071,0,0.4089,0.4079,0.4067,0.4074,0.4115,0.414,0.4181,0.4296,0.4384,0.4497,0.4584,0.4688,0.4776,0.4829,0.4883,0.4849,0.5015,0.4979,0.4906,0.4897,0.4732,0.4703,0.4693,0.507,0.507,0.507,0.507,0,0.41,0.4093,0.4077,0.4114,0.412,0.4134,0.4232,0.4273,0.4398,0.4449,0.4547,0.4593,0.4695,0.466,0.4797,0.4752,0.4773,0.4797,0.4802,0.4707,0.4661,0.4547,0.4562,0.4474,0.481,0.4808,0.4806,0,0.4131,0.4102,0.4109,0.4114,0.4117,0.4165,0.4206,0.4266,0.4324,0.4391,0.4463,0.4524,0.451,0.4541,0.46,0.465,0.4698,0.4627,0.4732,0.4734,0.4656,0.4711,0.4493,0.4543,0.4782,0.4785,0.4786,0,0.4151,0.4134,0.4131,0.4136,0.4162,0.4168,0.4209,0.4262,0.4311,0.433,0.4401,0.4447,0.4475,0.45,0.4514,0.4567,0.4653,0.4549,0.4552,0.4596,0.4791,0.4688,0.4694,0.4676,0.468,0.4682,0.4767,0,0.4169,0.4162,0.4156,0.4155,0.4168,0.4171,0.4199,0.4216,0.4235,0.4265,0.4329,0.4347,0.4398,0.4403,0.4401,0.4491,0.4474,0.4476,0.4482,0.4519,0.4543,0.4559,0.4366,0.4366,0.4365,0.4364,0,0,0.4202,0.418,0.4184,0.4175,0.4186,0.4204,0.4203,0.422,0.4223,0.4253,0.4239,0.4298,0.4309,0.4389,0.4395,0.4379,0.4403,0.4389,0.4478,0.449,0.4502,0.4529,0.4544,0.4363,0.4363,0.4363,0.4363,0,0.4202,0.4203,0.4186,0.419,0.4196,0.4208,0.4207,0.4209,0.423,0.4228,0.4256,0.4288,0.4284,0.4335,0.4357,0.4365,0.4396,0.4359,0.4394,0.447,0.4483,0.4495,0.4524,0.4538,0.4361,0.4361,0.4361,0,0.4219,0.4216,0.4209,0.4207,0.4211,0.4212,0.4225,0.423,0.4244,0.4249,0.4258,0.4273,0.4295,0.4319,0.4327,0.4321,0.4386,0.434,0.4343,0.4357,0.4436,0.445,0.4462,0.4312,0.4312,0.4312,0,0,0.4223,0.4212,0.4215,0.4208,0.4208,0.4217,0.4219,0.4236,0.4243,0.425,0.4257,0.427,0.4297,0.4305,0.4316,0.4314,0.4342,0.4337,0.4339,0.4341,0.4357,0.4435,0.4448,0.4312,0.4312,0.4312,0,0,0.4231,0.4226,0.423,0.422,0.4227,0.4236,0.4239,0.4246,0.4254,0.4263,0.4282,0.4287,0.4307,0.4299,0.4301,0.4338,0.4324,0.4323,0.4358,0.436,0.4363,0.4386,0.4337,0,0,0,0,0,0.4231,0.422,0.4224,0.4223,0.4223,0.4225,0.4226,0.4254,0.4263,0.4268,0.4279,0.4301,0.4315,0.4317,0.4315,0.435,0.4316,0.4315,0.4314,0.4358,0.4361,0.4363,0,0,0,0,0,0,0.4231,0.4229,0.4224,0.423,0.4231,0.4225,0.4253,0.426,0.4265,0.4272,0.4295,0.4301,0.4322,0.4318,0.4317,0.4351,0.4338,0.4316,0.4315,0.4314,0.4359,0.4361,0.4363,0,0,0,0,0,0.4231,0.4229,0.4224,0.4231,0.4231,0.426,0.4255,0.4261,0.4268,0.4291,0.4298,0.4292,0.432,0.4321,0.4318,0.4352,0.4339,0.4338,0.4315,0.4315,0.4314,0.436,0,0,0,0,0,0,0.4231,0.4233,0.4225,0.4226,0.425,0.4263,0.4266,0.4262,0.4288,0.4294,0.4289,0.4294,0.4318,0.432,0.4321,0.4353,0.434,0.4339,0.4339,0.4315,0.4314,0.4314,0,0,0,0,0,0,0.4234,0.4234,0.4225,0.4248,0.4252,0.4265,0.4268,0.4255,0.4288,0.4285,0.429,0.4291,0.4321,0.4318,0.4319,0.4297,0.434,0.434,0.4339,0.4339,0.4315,0.4314,0,0,0,0,0,0,0.4234,0.4234,0.4248,0.4251,0.4255,0.4269,0.4254,0.4256,0.4299,0.4283,0.4305,0.4308,0.4319,0.432,0.4317,0.4295,0.4296,0.434,0.434,0.434,0.4339,0,0,0,0,0,0,0,0.4235,0.4231,0.4219,0.4254,0.4257,0.4236,0.4236,0.4236,0.43,0.4302,0.4305,0.4307,0.4343,0.4343,0.4342,0.4293,0,0,0.434,0.434,0,0,0,0,0,0,0,0,0.4232,0.4231,0.4219,0.4219,0.4219,0.4236,0.4236,0.4236,0.43,0.4302,0.4304,0.4306,0.4343,0.4343,0.4342,0,0,0,0,0,0,0,0,0,0,0,0,0,0,0,0.4219,0.4219,0,0.4236,0.4236,0.4236,0.4301,0.4302,0.4304,0.4305,0.4343,0.4343,0.4342,0,0,0,0,0,0,0,0,0,0,0,0,0,0,0,0,0,0,0,0,0,0,0,0,0,0,0,0,0,0,0,0,0,0,0,0,0,0,0,0,0,0,0,0,0,0,0,0,0,0,0,0,0,0,0,0,0,0,0,0,0,0,0,0,0,0,0,0,0]}],[{"header":{"parameterUnit":"kt","parameterCategory":2,"dx":1,"dy":1,"la1":30.253999710083008,"la2":30.299108505249023,"lo1":-89.0895004272461,"lo2":-89.04439544677734,"nx":28,"ny":28,"refTime":"2022-10-23T21:00:00:Z","depth":"0","parameterNumber":3,"parameterNumberName":"V-component_of_CURRENTS"},"data":[0.1559,0.1658,0.1718,0.1947,0.2075,0.2277,0.2418,0.2649,0.282,0.3012,0.3075,0.3089,0.2765,0.1464,0.0606,0.037,0.0113,0.0064,-0.008,0.0094,0.0111,0.0127,0.0134,-0.004,-0.004,-0.027,-0.0273,-0.0275,0.1533,0.1599,0.1736,0.1897,0.2051,0.2132,0.2388,0.2527,0.2759,0.2923,0.2996,0.285,0.2304,0.173,0.0978,0.0559,0.0403,0.0336,0.0324,0.0283,0.0543,0.0567,0.0483,0.0483,0.0483,0.0483,0.0483,0.0483,0.1483,0.1548,0.164,0.1782,0.1932,0.212,0.2256,0.2441,0.2646,0.2815,0.2801,0.2799,0.2376,0.1709,0.1321,0.0733,0.0751,0.0568,0.0503,0.0494,0.0455,0.0767,0.0689,0.0688,0.0688,0.0687,0.0687,0,0.1428,0.1458,0.1536,0.1687,0.1807,0.1968,0.2125,0.2251,0.2388,0.251,0.2615,0.258,0.2235,0.1894,0.1393,0.1118,0.0748,0.0781,0.0639,0.06,0.0594,0.0506,0.0812,0.0777,0.0777,0.0777,0.0777,0.0777,0.1346,0.1397,0.152,0.1595,0.1641,0.1777,0.1886,0.1985,0.2107,0.2236,0.231,0.2206,0.2159,0.1756,0.1377,0.1002,0.0852,0.079,0.0751,0.0631,0.053,0.0514,0.0469,0.0776,0.0776,0.0776,0.0776,0,0.1307,0.1334,0.1436,0.1525,0.1565,0.1652,0.181,0.191,0.196,0.2103,0.2108,0.2041,0.1884,0.162,0.135,0.1148,0.0857,0.0833,0.091,0.0874,0.0623,0.0565,0.0448,0.0386,0.0671,0.067,0.0669,0,0.1252,0.1317,0.1371,0.1418,0.1535,0.1556,0.1689,0.172,0.1795,0.1909,0.1796,0.1846,0.1593,0.1472,0.1255,0.1044,0.106,0.0856,0.0809,0.0859,0.0861,0.07,0.0636,0.0851,0.0852,0.0852,0.0853,0,0.1184,0.1264,0.1339,0.1363,0.1438,0.1484,0.153,0.1577,0.1654,0.1657,0.1703,0.1596,0.1573,0.1398,0.12,0.1178,0.1028,0.0969,0.0832,0.0829,0.0817,0.0813,0.0716,0.0854,0.0854,0.0855,0.0855,0,0.1128,0.1176,0.126,0.1341,0.1362,0.1401,0.1485,0.1525,0.1543,0.155,0.1524,0.1459,0.1402,0.1315,0.1161,0.1186,0.1062,0.0973,0.0966,0.0907,0.0839,0.0806,0.0846,0.0716,0.0861,0.0861,0.0862,0,0.1068,0.1143,0.1146,0.1228,0.1272,0.1268,0.1316,0.1336,0.1343,0.1368,0.1303,0.1304,0.1213,0.1203,0.1153,0.1052,0.1007,0.1043,0.0869,0.0864,0.0846,0.0887,0.0938,0.0855,0.0869,0.0869,0.0868,0,0.1013,0.105,0.1059,0.1097,0.1115,0.1141,0.1178,0.1209,0.1252,0.1209,0.1249,0.1196,0.1149,0.1128,0.1069,0.1033,0.1013,0.0966,0.0961,0.0928,0.0916,0.0898,0.0891,0.0973,0.0973,0.0973,0.0874,0,0.0971,0.0999,0.1018,0.1047,0.1062,0.109,0.1088,0.1098,0.1087,0.1078,0.1079,0.1017,0.0992,0.0976,0.0939,0.0943,0.0903,0.0865,0.0822,0.0871,0.0819,0.0815,0.0831,0.0829,0.0827,0.0826,0,0,0.0916,0.0948,0.0931,0.096,0.0978,0.0945,0.0983,0.0979,0.0959,0.0969,0.0937,0.0894,0.0849,0.0857,0.0873,0.0844,0.0804,0.0839,0.085,0.0853,0.0856,0.081,0.0808,0.0822,0.0822,0.0821,0.0821,0,0.09,0.0898,0.0923,0.0928,0.0931,0.0923,0.0931,0.0916,0.0913,0.0918,0.0869,0.0848,0.0812,0.0789,0.0774,0.082,0.0748,0.0807,0.0879,0.0836,0.0842,0.0847,0.0803,0.0802,0.0816,0.0817,0.0817,0,0.0862,0.0865,0.087,0.0878,0.0872,0.0892,0.0851,0.0858,0.0878,0.0801,0.081,0.0768,0.0723,0.0724,0.0718,0.0696,0.0696,0.0701,0.0709,0.0714,0.0666,0.0674,0.068,0.0596,0.0596,0.0596,0,0,0.0851,0.0864,0.0855,0.0873,0.0875,0.0854,0.0852,0.0838,0.082,0.081,0.0773,0.0738,0.0717,0.0704,0.0672,0.0672,0.0625,0.0679,0.0689,0.0698,0.0708,0.0663,0.067,0.0595,0.0595,0.0595,0,0,0.0841,0.0837,0.0828,0.0848,0.0845,0.0823,0.083,0.0813,0.0793,0.0788,0.0733,0.0721,0.0714,0.0676,0.0668,0.0663,0.0615,0.0616,0.0701,0.0713,0.0723,0.0744,0.061,0,0,0,0,0,0.0819,0.084,0.0832,0.0834,0.0826,0.083,0.0826,0.0803,0.0786,0.0794,0.0761,0.0719,0.0665,0.0656,0.0645,0.0667,0.0579,0.0582,0.0585,0.0692,0.0705,0.0716,0,0,0,0,0,0,0.0819,0.0822,0.0831,0.0814,0.0812,0.0828,0.0794,0.0788,0.0785,0.0781,0.0728,0.0718,0.0678,0.0658,0.0648,0.0671,0.0613,0.058,0.0583,0.0585,0.0696,0.0707,0.0716,0,0,0,0,0,0.082,0.0821,0.082,0.0813,0.0811,0.0786,0.0794,0.0788,0.0783,0.073,0.072,0.0768,0.068,0.0669,0.0652,0.0677,0.0619,0.0615,0.0582,0.0584,0.0585,0.0702,0,0,0,0,0,0,0.082,0.0808,0.0819,0.0817,0.0808,0.0784,0.0781,0.0788,0.0731,0.0723,0.0767,0.0764,0.0681,0.0672,0.0664,0.0683,0.0624,0.062,0.0618,0.0583,0.0585,0.0586,0,0,0,0,0,0,0.0807,0.0806,0.0818,0.0813,0.081,0.0783,0.0781,0.0749,0.0729,0.0769,0.0766,0.0766,0.0683,0.0674,0.0668,0.0619,0.0627,0.0624,0.0622,0.0621,0.0584,0.0585,0,0,0,0,0,0,0.0806,0.0805,0.0814,0.0811,0.0809,0.0781,0.0752,0.0738,0.0752,0.077,0.075,0.075,0.0685,0.0678,0.0671,0.0626,0.0621,0.0627,0.0625,0.0624,0.0623,0,0,0,0,0,0,0,0.0805,0.0818,0.0835,0.081,0.0807,0.0798,0.0797,0.0796,0.0752,0.0751,0.0751,0.075,0.0646,0.0642,0.0639,0.0631,0,0,0.0628,0.0626,0,0,0,0,0,0,0,0,0.0817,0.0818,0.0835,0.0835,0.0834,0.0798,0.0797,0.0796,0.0752,0.0751,0.0751,0.075,0.0645,0.0642,0.0639,0,0,0,0,0,0,0,0,0,0,0,0,0,0,0,0.0835,0.0835,0,0.0798,0.0797,0.0796,0.0752,0.0751,0.0751,0.075,0.0644,0.0642,0.0639,0,0,0,0,0,0,0,0,0,0,0,0,0,0,0,0,0,0,0,0,0,0,0,0,0,0,0,0,0,0,0,0,0,0,0,0,0,0,0,0,0,0,0,0,0,0,0,0,0,0,0,0,0,0,0,0,0,0,0,0,0,0,0,0,0,0,0,0,0]}]],[[{"header":{"parameterUnit":"kt","parameterCategory":2,"dx":1,"dy":1,"la1":30.253999710083008,"la2":30.299108505249023,"lo1":-89.0895004272461,"lo2":-89.04439544677734,"nx":28,"ny":28,"refTime":"2022-10-23T21:00:00:Z","depth":"2","parameterNumber":2,"parameterNumberName":"U-component_of_CURRENTS"},"data":[0.3487,0.3437,0.3414,0.3306,0.3309,0.321,0.3176,0.3055,0.304,0.2892,0.2829,0.3025,0.3103,0.261,0.2524,0.2292,0.2475,0.2182,0.3165,0.3114,0.3167,0.3282,0.312,0,0,0,0,0,0.3534,0.3527,0.3548,0.351,0.3488,0.3572,0.3587,0.3498,0.3419,0.3512,0.3519,0.3225,0.3108,0.3147,0.2906,0.2886,0.2824,0.2741,0.2637,0.2703,0.2761,0.2605,0.2122,0.2118,0.2114,0.2111,0,0,0.3599,0.36,0.3597,0.3611,0.3662,0.3664,0.3646,0.3714,0.3759,0.3787,0.3967,0.3904,0.3946,0.3772,0.364,0.3536,0.3819,0.3614,0.3633,0.366,0.3554,0.3453,0.3321,0.3326,0.333,0.3333,0.3336,0,0.36,0.3613,0.3625,0.3652,0.3695,0.3751,0.383,0.3885,0.4022,0.4111,0.4191,0.424,0.4355,0.4176,0.4193,0.4122,0.4126,0.4013,0.4572,0.3751,0.3648,0.363,0.3648,0.3575,0.3581,0.3586,0.3589,0.3592,0.3605,0.3607,0.3646,0.3664,0.3687,0.3759,0.3815,0.394,0.4018,0.422,0.4272,0.4433,0.4479,0.4574,0.4525,0.4506,0.4604,0.4157,0.4031,0.4441,0.4425,0.4416,0.4408,0.3658,0.365,0.3643,0.3637,0,0.3613,0.3619,0.3637,0.3677,0.3699,0.3738,0.3865,0.3933,0.4058,0.4193,0.4242,0.4407,0.4501,0.458,0.4667,0.462,0.4632,0.461,0.4221,0.4165,0.443,0.4418,0.4507,0.4503,0.4501,0.4499,0.4497,0,0.3629,0.3638,0.3659,0.3664,0.3709,0.3749,0.3838,0.3901,0.4035,0.4133,0.4233,0.4325,0.4434,0.4527,0.4529,0.4553,0.4645,0.4493,0.4485,0.4175,0.4137,0.453,0.4516,0.4641,0.4641,0.464,0.464,0,0.3649,0.3662,0.3669,0.368,0.373,0.3763,0.3806,0.3918,0.3996,0.4115,0.4197,0.4299,0.4382,0.4432,0.4484,0.4455,0.4598,0.456,0.447,0.4461,0.4175,0.4135,0.4639,0.4639,0.4639,0.4639,0.4639,0,0.3672,0.3677,0.3683,0.3723,0.3733,0.3755,0.385,0.3892,0.4012,0.4064,0.416,0.4208,0.4306,0.4276,0.4399,0.4365,0.4383,0.44,0.4403,0.4297,0.4244,0.3986,0.397,0.4398,0.4397,0.4395,0.4393,0,0.3694,0.369,0.3706,0.3722,0.373,0.378,0.3821,0.3882,0.3942,0.4011,0.4074,0.4135,0.4128,0.4163,0.4218,0.4262,0.4305,0.4243,0.4328,0.433,0.4237,0.4292,0.3938,0.396,0.4372,0.4374,0.4376,0,0.3707,0.3718,0.3719,0.3728,0.3764,0.3772,0.3819,0.3871,0.3921,0.3952,0.4019,0.4064,0.4097,0.4117,0.413,0.4179,0.4262,0.4171,0.4173,0.4205,0.4386,0.4273,0.4277,0.4286,0.4289,0.4292,0.4358,0,0.3726,0.3731,0.3732,0.3745,0.3761,0.3772,0.3801,0.3828,0.3854,0.3882,0.395,0.3964,0.4014,0.4021,0.4018,0.4107,0.4093,0.4091,0.4089,0.4132,0.4148,0.4162,0.3987,0.3986,0.3985,0.3985,0,0,0.3742,0.3737,0.3748,0.3749,0.3763,0.3786,0.3792,0.3809,0.3822,0.3853,0.3843,0.3908,0.3919,0.3987,0.3996,0.3987,0.4012,0.4005,0.4092,0.4104,0.4115,0.4135,0.4149,0.3983,0.3983,0.3983,0.3983,0,0.3741,0.3753,0.3748,0.3757,0.3772,0.3779,0.3788,0.3794,0.3812,0.3827,0.3843,0.3879,0.3895,0.3927,0.3944,0.3972,0.4,0.3977,0.4019,0.4084,0.4096,0.4108,0.4129,0.4142,0.3981,0.3981,0.3981,0,0.3749,0.3753,0.3754,0.3759,0.3765,0.377,0.3775,0.3787,0.3802,0.3803,0.3826,0.3842,0.386,0.3891,0.3907,0.39,0.3983,0.3941,0.3944,0.396,0.4027,0.404,0.4052,0.3902,0.3902,0.3902,0,0,0.375,0.3751,0.3757,0.3759,0.3764,0.377,0.3774,0.3784,0.3791,0.3797,0.3811,0.3829,0.3854,0.387,0.3883,0.3905,0.3926,0.3934,0.3937,0.3941,0.3958,0.4024,0.4037,0.3902,0.3902,0.3902,0,0,0.3749,0.3753,0.3761,0.376,0.3768,0.3766,0.3771,0.3779,0.3789,0.3799,0.3812,0.3818,0.3854,0.3852,0.3846,0.39,0.3881,0.3882,0.3914,0.3918,0.3922,0.3942,0.3863,0,0,0,0,0,0.3753,0.375,0.3758,0.3759,0.3759,0.376,0.376,0.3772,0.3782,0.3788,0.3799,0.3817,0.3851,0.3846,0.385,0.3891,0.3898,0.3899,0.39,0.3945,0.3949,0.3953,0,0,0,0,0,0,0.3754,0.3754,0.3758,0.3755,0.3755,0.3759,0.3766,0.3768,0.3783,0.3786,0.3811,0.3817,0.3825,0.3845,0.3849,0.3888,0.3862,0.3899,0.3899,0.39,0.3946,0.395,0.3953,0,0,0,0,0,0.3754,0.3754,0.3754,0.3754,0.3755,0.3769,0.3767,0.3769,0.3782,0.3798,0.3804,0.3795,0.3824,0.3829,0.3847,0.3886,0.386,0.3861,0.3899,0.3899,0.39,0.3948,0,0,0,0,0,0,0.3754,0.3749,0.3754,0.3754,0.3767,0.377,0.3771,0.377,0.3794,0.3799,0.3782,0.3784,0.3822,0.3827,0.3831,0.3886,0.3858,0.3859,0.386,0.3899,0.39,0.39,0,0,0,0,0,0,0.3749,0.3749,0.3754,0.3768,0.377,0.377,0.3772,0.3781,0.3795,0.3776,0.3778,0.3783,0.3833,0.3825,0.3829,0.3842,0.3856,0.3858,0.3859,0.3859,0.39,0.39,0,0,0,0,0,0,0.3749,0.3749,0.3768,0.377,0.3771,0.3774,0.378,0.3788,0.3782,0.3775,0.3785,0.3787,0.3831,0.3834,0.3827,0.3838,0.3841,0.3856,0.3857,0.3858,0.3858,0,0,0,0,0,0,0,0.3749,0.3749,0.3756,0.3771,0.3772,0.3759,0.3759,0.3758,0.3782,0.3783,0.3785,0.3786,0.3849,0.3851,0.3852,0.3835,0,0,0.3856,0.3857,0,0,0,0,0,0,0,0,0.3749,0.3749,0.3756,0.3756,0.3756,0.3759,0.3759,0.3758,0.3782,0.3783,0.3784,0.3785,0.385,0.3851,0.3852,0,0,0,0,0,0,0,0,0,0,0,0,0,0,0,0.3756,0.3756,0,0.3759,0.3759,0.3758,0.3782,0.3783,0.3784,0.3785,0.385,0.3851,0.3852,0,0,0,0,0,0,0,0,0,0,0,0,0,0,0,0,0,0,0,0,0,0,0,0,0,0,0,0,0,0,0,0,0,0,0,0,0,0,0,0,0,0,0,0,0,0,0,0,0,0,0,0,0,0,0,0,0,0,0,0,0,0,0,0,0,0,0,0,0]}],[{"header":{"parameterUnit":"kt","parameterCategory":2,"dx":1,"dy":1,"la1":30.253999710083008,"la2":30.299108505249023,"lo1":-89.0895004272461,"lo2":-89.04439544677734,"nx":28,"ny":28,"refTime":"2022-10-23T21:00:00:Z","depth":"2","parameterNumber":3,"parameterNumberName":"V-component_of_CURRENTS"},"data":[0.0874,0.098,0.1039,0.1277,0.1417,0.1631,0.1766,0.1931,0.2067,0.2167,0.2175,0.2148,0.1692,0.1243,0.0768,0.0432,0.0344,0.0337,0.0423,0.0554,0.0563,0.0232,0.0285,0,0,0,0,0,0.0853,0.0927,0.1063,0.1237,0.1396,0.1489,0.1719,0.183,0.202,0.216,0.2226,0.1887,0.1556,0.1153,0.057,0.0209,0.0175,0.0059,0.0115,0.0122,0.0127,0.0153,0.0068,0.0067,0.0065,0.0064,0,0,0.0823,0.088,0.0999,0.1144,0.1301,0.1477,0.1597,0.176,0.1931,0.2077,0.2064,0.2031,0.1692,0.1119,0.0724,0.0311,0.0334,0.0161,0.0165,0.0169,0.0196,0.0216,0.0123,0.0123,0.0123,0.0122,0.0122,0,0.079,0.0838,0.092,0.1076,0.1203,0.1349,0.1498,0.1601,0.1732,0.183,0.1919,0.1887,0.1581,0.1257,0.0805,0.0562,0.033,0.0257,0.028,0.0299,0.0324,0.0288,0.0294,0.0246,0.0246,0.0246,0.0247,0.0247,0.076,0.0806,0.0941,0.1021,0.107,0.1194,0.13,0.1396,0.1503,0.1613,0.1675,0.1587,0.1541,0.1166,0.0828,0.0489,0.0433,0.0276,0.024,0.0272,0.0234,0.0241,0.0247,0.025,0.0249,0.0249,0.0249,0,0.0748,0.0794,0.0883,0.098,0.1023,0.1099,0.1246,0.1337,0.1387,0.1506,0.1517,0.1464,0.1322,0.1089,0.084,0.0651,0.0435,0.035,0.0412,0.0375,0.0253,0.0257,0.0188,0.0186,0.0185,0.0183,0.0182,0,0.0735,0.0789,0.0861,0.0901,0.1005,0.1032,0.1148,0.1181,0.1251,0.1346,0.126,0.1297,0.1081,0.0967,0.077,0.0565,0.0585,0.0382,0.0336,0.0374,0.0374,0.0361,0.0359,0.0389,0.039,0.0391,0.0391,0,0.0696,0.0768,0.0836,0.0858,0.0928,0.0974,0.1017,0.1061,0.1126,0.1136,0.1177,0.1083,0.1062,0.0904,0.0723,0.0706,0.0554,0.0501,0.0362,0.0358,0.0336,0.033,0.0392,0.0392,0.0392,0.0393,0.0393,0,0.0665,0.0708,0.0779,0.0854,0.0872,0.0906,0.0983,0.1015,0.1032,0.1039,0.1018,0.0963,0.0908,0.0833,0.0686,0.0714,0.06,0.0512,0.0506,0.0437,0.0372,0.0335,0.0358,0.0406,0.0407,0.0407,0.0408,0,0.063,0.0692,0.0699,0.0764,0.0798,0.0803,0.0841,0.0858,0.0865,0.0886,0.0823,0.082,0.0741,0.0734,0.0685,0.0586,0.0543,0.0578,0.0415,0.0411,0.0387,0.0414,0.0449,0.0368,0.0416,0.0415,0.0414,0,0.0594,0.0633,0.0641,0.0674,0.0689,0.0706,0.0736,0.0759,0.0798,0.0756,0.0789,0.0724,0.0691,0.0662,0.0607,0.0569,0.055,0.0512,0.0507,0.0482,0.0458,0.0427,0.0419,0.0514,0.0514,0.0514,0.042,0,0.0576,0.0601,0.0614,0.0639,0.0648,0.0667,0.0665,0.0674,0.0669,0.0658,0.065,0.0584,0.0554,0.0531,0.0494,0.049,0.0457,0.042,0.0385,0.0423,0.0374,0.037,0.0391,0.0389,0.0387,0.0386,0,0,0.0541,0.0568,0.0557,0.0578,0.0592,0.0567,0.0594,0.0586,0.0563,0.0572,0.0545,0.0488,0.0437,0.0427,0.0438,0.0405,0.037,0.0406,0.0405,0.0408,0.041,0.0366,0.0364,0.0383,0.0382,0.0382,0.0381,0,0.0532,0.0537,0.0555,0.0557,0.0558,0.0549,0.0556,0.0539,0.0536,0.0531,0.0486,0.0459,0.0409,0.0378,0.0355,0.0384,0.0322,0.0369,0.0435,0.0392,0.0397,0.0401,0.036,0.0359,0.0377,0.0377,0.0377,0,0.051,0.0514,0.052,0.0523,0.0515,0.0525,0.0493,0.0495,0.0507,0.0436,0.0438,0.0394,0.0338,0.0325,0.0313,0.0295,0.0279,0.0285,0.0292,0.0299,0.0251,0.0257,0.0263,0.0194,0.0194,0.0194,0,0,0.0504,0.0517,0.0507,0.0519,0.0519,0.0498,0.0493,0.048,0.0457,0.0446,0.0409,0.0368,0.0336,0.0319,0.0279,0.0267,0.0225,0.0267,0.0276,0.0283,0.0294,0.0249,0.0255,0.0194,0.0193,0.0193,0,0,0.0493,0.0493,0.049,0.0504,0.0496,0.0468,0.0469,0.0456,0.043,0.0429,0.0374,0.036,0.0342,0.0301,0.0301,0.0273,0.0231,0.023,0.0314,0.0323,0.0331,0.0357,0.0247,0,0,0,0,0,0.0482,0.0496,0.0495,0.0496,0.0483,0.0474,0.0469,0.0445,0.0437,0.0438,0.0404,0.0366,0.029,0.0288,0.0275,0.0291,0.0186,0.0187,0.0188,0.0291,0.0302,0.0311,0,0,0,0,0,0,0.0483,0.0484,0.0494,0.0471,0.0468,0.0473,0.0447,0.044,0.0436,0.0433,0.0375,0.0364,0.0321,0.0291,0.028,0.0297,0.025,0.0186,0.0187,0.0188,0.0294,0.0303,0.0311,0,0,0,0,0,0.0483,0.0484,0.0475,0.047,0.0467,0.0439,0.0446,0.044,0.0435,0.0377,0.0366,0.042,0.0323,0.031,0.0284,0.0303,0.0257,0.0253,0.0187,0.0188,0.0189,0.0299,0,0,0,0,0,0,0.0483,0.0467,0.0473,0.0471,0.0469,0.0438,0.0434,0.0441,0.0377,0.0369,0.0418,0.0415,0.0323,0.0314,0.0304,0.0309,0.0263,0.0259,0.0257,0.0188,0.0188,0.0189,0,0,0,0,0,0,0.0466,0.0465,0.0472,0.0472,0.0469,0.0437,0.0434,0.0396,0.0375,0.042,0.0417,0.0417,0.0329,0.0316,0.0309,0.025,0.0267,0.0264,0.0261,0.0259,0.0188,0.0189,0,0,0,0,0,0,0.0464,0.0463,0.0472,0.047,0.0467,0.0432,0.04,0.0381,0.04,0.0422,0.0399,0.0399,0.0331,0.0324,0.0312,0.0257,0.0252,0.0267,0.0265,0.0263,0.0262,0,0,0,0,0,0,0,0.0463,0.0483,0.0494,0.0468,0.0466,0.0447,0.0445,0.0444,0.04,0.04,0.0399,0.0399,0.0288,0.0284,0.028,0.0262,0,0,0.0268,0.0266,0,0,0,0,0,0,0,0,0.0482,0.0483,0.0494,0.0494,0.0494,0.0446,0.0445,0.0444,0.04,0.04,0.04,0.0399,0.0287,0.0284,0.0281,0,0,0,0,0,0,0,0,0,0,0,0,0,0,0,0.0494,0.0494,0,0.0446,0.0445,0.0445,0.04,0.04,0.04,0.0399,0.0286,0.0284,0.0281,0,0,0,0,0,0,0,0,0,0,0,0,0,0,0,0,0,0,0,0,0,0,0,0,0,0,0,0,0,0,0,0,0,0,0,0,0,0,0,0,0,0,0,0,0,0,0,0,0,0,0,0,0,0,0,0,0,0,0,0,0,0,0,0,0,0,0,0,0]}]],[[{"header":{"parameterUnit":"kt","parameterCategory":2,"dx":1,"dy":1,"la1":30.253999710083008,"la2":30.299108505249023,"lo1":-89.0895004272461,"lo2":-89.04439544677734,"nx":28,"ny":28,"refTime":"2022-10-23T21:00:00:Z","depth":"4","parameterNumber":2,"parameterNumberName":"U-component_of_CURRENTS"},"data":[0.1717,0.1748,0.1751,0.167,0.1675,0.1721,0.1807,0.1953,0.194,0.2178,0.2217,0.2395,0.248,0.2647,0.2575,0.2599,0.2562,0.2852,0.2844,0.291,0.2933,0.2953,0.2834,0,0,0,0,0,0.1798,0.1784,0.1818,0.1847,0.192,0.198,0.21,0.2186,0.2391,0.2362,0.2491,0.2565,0.2613,0.2711,0.2621,0.2851,0.2902,0.2729,0.2771,0.2924,0.2949,0.2825,0,0,0,0,0,0,0.1913,0.1914,0.1995,0.2044,0.2125,0.2129,0.2207,0.2263,0.2344,0.2621,0.2638,0.2835,0.3023,0.2977,0.2993,0.2963,0.2899,0.2773,0.2804,0.283,0.2704,0.2595,0.2432,0,0,0,0,0,0.2,0.2082,0.2125,0.2206,0.2277,0.2325,0.242,0.2451,0.2633,0.2832,0.2898,0.2951,0.3053,0.3097,0.3121,0.3099,0.3251,0.3178,0.3189,0.31,0.3047,0.3021,0.3026,0.3044,0.3047,0.3049,0.3051,0,0.2118,0.2144,0.2284,0.2322,0.2384,0.2477,0.2528,0.2691,0.2744,0.2992,0.3017,0.3207,0.3302,0.3242,0.3347,0.3331,0.3286,0.3244,0.315,0.3087,0.3055,0.3054,0.3051,0.3071,0.3069,0.3068,0.3066,0,0.2167,0.2259,0.2311,0.2431,0.2477,0.2524,0.2668,0.2719,0.2888,0.3001,0.3062,0.3253,0.3349,0.3443,0.3521,0.3417,0.3391,0.3334,0.353,0.3507,0.3094,0.3083,0.3104,0.3097,0.309,0.3085,0.3081,0,0.2253,0.2295,0.2416,0.2437,0.2501,0.2586,0.2677,0.2763,0.2903,0.298,0.3128,0.3203,0.3343,0.3426,0.3432,0.3385,0.3526,0.3267,0.3235,0.341,0.3399,0.3384,0.3369,0.351,0.3509,0.3509,0.3508,0,0.2292,0.2372,0.2426,0.2452,0.2546,0.2605,0.2668,0.2793,0.286,0.3011,0.3091,0.3206,0.3294,0.334,0.3394,0.3372,0.3488,0.3443,0.3246,0.323,0.3376,0.3361,0.3507,0.3507,0.3507,0.3507,0.3507,0,0.2345,0.2384,0.2444,0.2518,0.254,0.2589,0.2703,0.276,0.2891,0.2957,0.3064,0.312,0.3225,0.3203,0.3315,0.3288,0.33,0.3307,0.3309,0.3075,0.2994,0.3157,0.3292,0.329,0.3288,0.3287,0.3285,0,0.2355,0.2409,0.2451,0.2508,0.2534,0.2607,0.2664,0.2742,0.282,0.2906,0.2971,0.3045,0.3053,0.3097,0.3146,0.3177,0.3217,0.3161,0.3196,0.3197,0.2976,0.3049,0.3194,0.3262,0.3265,0.3267,0.3269,0,0.235,0.243,0.2444,0.2473,0.2547,0.2565,0.2643,0.271,0.2771,0.2846,0.292,0.2981,0.3023,0.3032,0.3041,0.308,0.3177,0.3068,0.3068,0.308,0.3274,0.3048,0.304,0.318,0.3183,0.3185,0.3253,0,0.2372,0.2416,0.2435,0.2487,0.252,0.2556,0.2599,0.2659,0.2715,0.2747,0.2841,0.2861,0.2911,0.2922,0.2914,0.3,0.2986,0.296,0.2906,0.2994,0.301,0.3023,0.2844,0.2842,0.284,0.2839,0,0,0.2358,0.2388,0.2422,0.2448,0.2475,0.2521,0.2548,0.2582,0.2633,0.2672,0.2683,0.2764,0.2766,0.2817,0.2855,0.2847,0.2865,0.2832,0.2949,0.2961,0.2972,0.2992,0.3006,0.2837,0.2836,0.2836,0.2835,0,0.2341,0.2386,0.2412,0.2436,0.2484,0.2493,0.252,0.2552,0.2588,0.2643,0.2652,0.2706,0.2725,0.2735,0.2738,0.2823,0.2796,0.2832,0.2892,0.2935,0.2949,0.2961,0.2983,0.2997,0.2832,0.2832,0.2832,0,0.2327,0.2348,0.2368,0.2401,0.2425,0.2447,0.2451,0.2495,0.2527,0.2513,0.2581,0.26,0.2597,0.264,0.2664,0.2634,0.273,0.2687,0.2695,0.2702,0.2743,0.2759,0.2774,0.2581,0.258,0.2579,0,0,0.2317,0.2349,0.2364,0.2396,0.2413,0.2434,0.2454,0.2474,0.2497,0.252,0.2534,0.2556,0.2575,0.2589,0.2599,0.263,0.2629,0.2657,0.2669,0.2679,0.2691,0.2734,0.2751,0.2576,0.2576,0.2576,0,0,0.23,0.2325,0.2348,0.2377,0.2401,0.2397,0.2429,0.2448,0.2488,0.2514,0.2498,0.2501,0.2562,0.2543,0.251,0.258,0.2531,0.2537,0.2588,0.2602,0.2614,0.2625,0.2455,0,0,0,0,0,0.2298,0.2319,0.234,0.2347,0.2375,0.2387,0.2391,0.2417,0.2444,0.2469,0.2498,0.2468,0.2528,0.2498,0.2496,0.2532,0.254,0.2547,0.2553,0.2627,0.2642,0.2655,0,0,0,0,0,0,0.2301,0.2308,0.2339,0.2334,0.2341,0.2385,0.2384,0.239,0.2442,0.2449,0.2465,0.2466,0.2443,0.2496,0.2495,0.2531,0.2455,0.2543,0.2548,0.2553,0.2632,0.2645,0.2655,0,0,0,0,0,0.2303,0.2309,0.2353,0.2334,0.234,0.2375,0.2385,0.2391,0.2441,0.242,0.2425,0.247,0.2441,0.2443,0.2495,0.2533,0.2456,0.2456,0.2546,0.2551,0.2555,0.2638,0,0,0,0,0,0,0.2305,0.2305,0.2354,0.2356,0.2347,0.2375,0.2381,0.2391,0.2411,0.2417,0.2418,0.2422,0.244,0.2442,0.2442,0.2536,0.2456,0.2456,0.2456,0.255,0.2553,0.2556,0,0,0,0,0,0,0.2302,0.2306,0.2355,0.2371,0.2375,0.2374,0.238,0.2372,0.241,0.2407,0.2411,0.2419,0.2442,0.244,0.2441,0.2427,0.2457,0.2457,0.2456,0.2456,0.2552,0.2555,0,0,0,0,0,0,0.2304,0.2308,0.237,0.2373,0.2377,0.2403,0.2367,0.2396,0.2426,0.2405,0.243,0.2432,0.244,0.2441,0.244,0.2425,0.2427,0.2457,0.2457,0.2456,0.2456,0,0,0,0,0,0,0,0.2306,0.2278,0.2344,0.2375,0.2379,0.238,0.238,0.238,0.2426,0.2428,0.2429,0.2431,0.2458,0.2458,0.2458,0.2424,0,0,0.2457,0.2457,0,0,0,0,0,0,0,0,0.2277,0.2278,0.2344,0.2345,0.2346,0.238,0.238,0.238,0.2426,0.2428,0.2429,0.243,0.2458,0.2458,0.2458,0,0,0,0,0,0,0,0,0,0,0,0,0,0,0,0.2344,0.2345,0,0.238,0.238,0.238,0.2427,0.2428,0.2429,0.243,0.2458,0.2458,0.2458,0,0,0,0,0,0,0,0,0,0,0,0,0,0,0,0,0,0,0,0,0,0,0,0,0,0,0,0,0,0,0,0,0,0,0,0,0,0,0,0,0,0,0,0,0,0,0,0,0,0,0,0,0,0,0,0,0,0,0,0,0,0,0,0,0,0,0,0,0]}],[{"header":{"parameterUnit":"kt","parameterCategory":2,"dx":1,"dy":1,"la1":30.253999710083008,"la2":30.299108505249023,"lo1":-89.0895004272461,"lo2":-89.04439544677734,"nx":28,"ny":28,"refTime":"2022-10-23T21:00:00:Z","depth":"4","parameterNumber":3,"parameterNumberName":"V-component_of_CURRENTS"},"data":[0.0322,0.0406,0.0459,0.061,0.0699,0.0835,0.0929,0.0999,0.1016,0.1088,0.0961,0.0941,0.069,0.0894,0.0453,0.0396,0.0274,0.0052,0.0046,-0.011,-0.0105,-0.0101,-0.0058,0,0,0,0,0,0.0313,0.0371,0.0465,0.0597,0.0713,0.0791,0.0928,0.0984,0.1088,0.1121,0.1138,0.1027,0.0777,0.0674,0.0467,0.0411,0.0141,0.0155,0.0024,-0.0107,-0.0102,-0.0062,0,0,0,0,0,0,0.0312,0.0351,0.0452,0.0562,0.0682,0.0798,0.0857,0.0957,0.1036,0.1135,0.1138,0.1029,0.0971,0.0678,0.0474,0.0271,0.0205,0.0112,0.0106,0.0108,0.0171,0.0227,0.0197,0,0,0,0,0,0.0313,0.0358,0.0422,0.0545,0.0642,0.0746,0.086,0.092,0.103,0.1074,0.111,0.0992,0.087,0.0646,0.043,0.0217,0.0063,-0.001,-0.0009,-0.0029,-0.0007,-0.0037,-0.003,-0.0083,-0.0082,-0.0082,-0.0082,0,0.0328,0.0358,0.0473,0.0533,0.0577,0.0673,0.0753,0.0838,0.0909,0.0998,0.1034,0.0971,0.0918,0.0637,0.0439,0.0154,0.01,0.0005,-0.0016,0.0002,-0.0031,-0.0025,-0.002,-0.0078,-0.0078,-0.0078,-0.0079,0,0.0338,0.0383,0.0445,0.0532,0.0569,0.0626,0.0743,0.0806,0.0856,0.0935,0.0947,0.0915,0.0801,0.063,0.0431,0.0294,0.0121,0.0052,0.0148,0.0113,-0.0015,-0.0011,-0.0071,-0.0073,-0.0074,-0.0075,-0.0076,0,0.0356,0.0392,0.0461,0.0488,0.0566,0.0599,0.0683,0.0717,0.0772,0.0835,0.0788,0.0806,0.0653,0.0557,0.0404,0.0236,0.0249,0.0094,0.0054,0.0119,0.0121,0.0084,0.0084,0.0097,0.0097,0.0098,0.0099,0,0.0347,0.04,0.0448,0.0466,0.0526,0.0564,0.0603,0.0641,0.0685,0.0701,0.0729,0.0661,0.0642,0.0517,0.0371,0.0361,0.0227,0.0188,0.0077,0.0073,0.0088,0.0086,0.0099,0.0099,0.01,0.01,0.01,0,0.0343,0.0375,0.0421,0.0483,0.0497,0.0522,0.0585,0.0607,0.0624,0.0631,0.0615,0.0576,0.053,0.0473,0.035,0.0373,0.028,0.0206,0.02,0.0153,0.0098,0.0105,0.0116,0.0117,0.0117,0.0118,0.0118,0,0.0338,0.0375,0.0387,0.0428,0.0449,0.0463,0.0491,0.0504,0.0509,0.0526,0.0476,0.0469,0.041,0.0402,0.0358,0.0274,0.0235,0.0266,0.0134,0.013,0.0119,0.0123,0.0206,0.0126,0.0125,0.0124,0.0124,0,0.0326,0.0358,0.0364,0.0389,0.0401,0.041,0.0429,0.0445,0.0475,0.044,0.0464,0.0398,0.0379,0.035,0.0302,0.0266,0.0241,0.0221,0.0217,0.0203,0.0159,0.0134,0.0126,0.0207,0.0207,0.0207,0.0129,0,0.0332,0.0351,0.0356,0.0373,0.0378,0.0387,0.0387,0.0394,0.0394,0.0386,0.0372,0.0314,0.0285,0.0257,0.0225,0.0209,0.0184,0.0154,0.0137,0.0152,0.0113,0.0109,0.0135,0.0134,0.0133,0.0132,0,0,0.0323,0.0339,0.0335,0.0345,0.0356,0.0344,0.0357,0.035,0.0331,0.0337,0.0319,0.0259,0.0214,0.0191,0.0192,0.0158,0.0129,0.0163,0.0141,0.0143,0.0144,0.0108,0.0106,0.013,0.013,0.0129,0.0129,0,0.032,0.0329,0.0338,0.0338,0.0339,0.0333,0.0338,0.0325,0.0325,0.0312,0.0281,0.0253,0.0198,0.0169,0.0145,0.0146,0.0103,0.0125,0.0172,0.0133,0.0136,0.0138,0.0104,0.0103,0.0126,0.0127,0.0127,0,0.0316,0.032,0.0324,0.0324,0.0319,0.0321,0.0307,0.0305,0.0311,0.0263,0.0259,0.0221,0.0169,0.0142,0.0127,0.0115,0.0079,0.0086,0.0091,0.0106,0.0064,0.0067,0.007,0.0036,0.0036,0.0036,0,0,0.0314,0.0324,0.0317,0.0322,0.0322,0.031,0.0305,0.03,0.028,0.0272,0.0244,0.0208,0.0173,0.0154,0.0116,0.0089,0.0061,0.0079,0.0084,0.0087,0.0104,0.0064,0.0067,0.0036,0.0036,0.0037,0,0,0.0307,0.031,0.0314,0.0319,0.0312,0.0291,0.029,0.0285,0.0264,0.0266,0.0226,0.0214,0.0188,0.0153,0.0162,0.0112,0.0089,0.0086,0.0148,0.0152,0.0156,0.0189,0.0129,0,0,0,0,0,0.0306,0.0311,0.0315,0.0316,0.0306,0.0292,0.0289,0.0278,0.0281,0.0279,0.0253,0.0228,0.0148,0.0156,0.0144,0.0146,0.004,0.004,0.0039,0.0111,0.0116,0.012,0,0,0,0,0,0,0.0306,0.0307,0.0315,0.0297,0.0295,0.0292,0.0284,0.0281,0.0281,0.028,0.0235,0.0226,0.0194,0.0159,0.0149,0.0152,0.0133,0.004,0.004,0.0039,0.0112,0.0117,0.012,0,0,0,0,0,0.0306,0.0307,0.0299,0.0296,0.0294,0.0281,0.0285,0.0282,0.0281,0.0235,0.0227,0.0276,0.0195,0.0184,0.0153,0.0158,0.014,0.0136,0.004,0.0039,0.0039,0.0115,0,0,0,0,0,0,0.0306,0.0295,0.0298,0.0296,0.0301,0.028,0.0278,0.0282,0.0234,0.0228,0.0272,0.0271,0.0195,0.0186,0.0178,0.0162,0.0145,0.0141,0.0139,0.0039,0.0039,0.0039,0,0,0,0,0,0,0.0295,0.0294,0.0297,0.0303,0.0302,0.028,0.0278,0.0239,0.0232,0.0273,0.0272,0.0272,0.0199,0.0188,0.0182,0.0121,0.0149,0.0146,0.0143,0.0142,0.0039,0.0039,0,0,0,0,0,0,0.0293,0.0293,0.0303,0.0302,0.0301,0.0277,0.0242,0.0226,0.0261,0.0274,0.0262,0.0262,0.02,0.0194,0.0184,0.0126,0.0122,0.0149,0.0147,0.0145,0.0144,0,0,0,0,0,0,0,0.0293,0.0307,0.0312,0.0301,0.03,0.028,0.0279,0.0278,0.0261,0.0262,0.0262,0.0262,0.017,0.0166,0.0162,0.0131,0,0,0.015,0.0148,0,0,0,0,0,0,0,0,0.0306,0.0307,0.0312,0.0312,0.0312,0.0279,0.0279,0.0278,0.0261,0.0262,0.0262,0.0262,0.0169,0.0166,0.0162,0,0,0,0,0,0,0,0,0,0,0,0,0,0,0,0.0312,0.0312,0,0.0279,0.0279,0.0278,0.0261,0.0262,0.0262,0.0262,0.0168,0.0165,0.0163,0,0,0,0,0,0,0,0,0,0,0,0,0,0,0,0,0,0,0,0,0,0,0,0,0,0,0,0,0,0,0,0,0,0,0,0,0,0,0,0,0,0,0,0,0,0,0,0,0,0,0,0,0,0,0,0,0,0,0,0,0,0,0,0,0,0,0,0,0]}]]]